Home   Weather   Charleston   Past weeks

Flag for USA Past Weather in Charleston, South Carolina, USA — Yesterday and Last 2 Weeks

Now
61 °F

More clouds than sun.


Feels Like: 61 °F
Forecast: 57 / 60 °F
Wind: 3 mph from Northeast

Location: Charleston Air Force Base Reporting Station

Current Time: Dec 5, 2016 at 3:52:44 pm

Latest Report: Dec 5, 2016 at 2:56 pm


Visibility: 10 mi

Pressure: 29.94 "Hg

Humidity: 78%

Dew Point: 54 °F

Location of CharlestonLocation

Past Weather in Charleston — Graph

°F

Charleston Temperature Yesterday

Maximum temperature yesterday: 60 °F (at 1:56 pm)
Minimum temperature yesterday: 50 °F (at 3:56 am)
Average temperature yesterday: 55 °F

High & Low Weather Summary for the Past Weeks

 TemperatureHumidityPressure
High80 °F (Nov 24, 12:56 pm)97% (Nov 25, 5:56 am)30.32 "Hg (Nov 25, 5:56 am)
Low34 °F (Nov 21, 4:56 am)16% (Nov 21, 1:56 pm)29.82 "Hg (Nov 30, 3:56 pm)
Average58 °F66%30.12 "Hg
* Reported Nov 20 1:56 pm — Dec 5 1:56 pm, Charleston, Weather by CustomWeather, © 2016

Note: Actual official high and low records may vary slightly from our data, if they occured in-between our weather recording intervals... More about our weather records

Advertising

Charleston Weather History for the Previous 24 Hours

Scroll right to see more
 ConditionsComfort  
Time TempWeatherWind HumidityBarometerVisibility
1:56 pm
Mon, Dec 5
61 °FMostly cloudy.7 mph78%29.95 "Hg10 mi
12:56 pm58 °FMostly cloudy.3 mph84%29.97 "Hg10 mi
11:56 am57 °FMostly cloudy.7 mph83%29.98 "Hg5 mi
10:56 am55 °FFog.6 mph87%30.01 "Hg4 mi
9:56 am53 °FFog.6 mph89%30.02 "Hg3 mi
8:56 am53 °FLight rain. Fog.7 mph93%29.99 "Hg2 mi
7:56 am54 °FFog.13 mph93%29.98 "Hg1 mi
6:56 am57 °FFog.6 mph90%29.94 "Hg5 mi
5:56 am57 °FMostly cloudy.5 mph93%29.95 "Hg7 mi
4:56 am59 °FLight rain. Overcast.8 mph90%29.97 "Hg8 mi
4:02 am62 °FMostly cloudy.8 mph93%29.96 "Hg9 mi
3:56 am64 °FLight rain. Overcast.8 mph90%29.96 "Hg10 mi
2:56 am64 °FLight rain. Passing clouds.6 mph90%29.96 "Hg9 mi
1:56 am69 °FLight rain. Mostly cloudy.13 mph87%29.96 "Hg10 mi
12:56 am62 °FLight rain. Partly cloudy.5 mph78%29.96 "Hg10 mi
11:56 pm
Sun, Dec 4
59 °FPassing clouds.No wind81%29.99 "Hg10 mi
10:56 pm58 °FPassing clouds.No wind81%30.02 "Hg10 mi
9:56 pm57 °FMostly cloudy.3 mph83%30.04 "Hg10 mi
8:56 pm57 °FOvercast.6 mph81%30.06 "Hg10 mi
7:56 pm57 °FMostly cloudy.6 mph81%30.06 "Hg10 mi
6:56 pm57 °FOvercast.10 mph78%30.06 "Hg10 mi
5:56 pm57 °FMostly cloudy.10 mph72%30.08 "Hg10 mi
4:56 pm57 °FMostly cloudy.10 mph74%30.10 "Hg10 mi
3:56 pm59 °FOvercast.12 mph69%30.10 "Hg10 mi
Weather by CustomWeather, © 2016

See weather overviewHow to use our weather pages